Location: Briarwood
(39.0812°N, 76.8511°W)
Time: 22:30:18
(UTC+00:00)

Intercosmos 24 - Pass Details

Date: 10 September 2024
Orbit: 497 x 2362 km, 82.6° (Epoch: 06 October)

Event Time Altitude Azimuth Distance (km) Brightness Sun altitude
Rises 23:48:51 0° 352° (N) 2,596 7.5 -5.8°
Reaches altitude 10° 23:50:49 10° 353° (N) 1,736 6.6 -6.2°
Maximum altitude 23:54:26 88° 77° (ENE) 572 3.9 -6.9°
Drops below altitude 10° 23:58:57 10° 173° (S) 2,144 6.6 -7.7°
Sets 00:01:35 0° 174° (S) 3,281 7.6 -8.2°
